Tracking 35331 objects as of 16-Sep-2026
HD Live streaming from Space Station
objects crossing your sky now

SL-6 R/B


SL-6 R/B is no longer on orbit


NORAD ID: 14164
Int'l Code: 1983-067B
Launch date: July 1, 1983
Source: Commonwealth of Independent States (former USSR) (CIS)
Launch site: TYURATAM MISSILE AND SPACE COMPLEX (TTMTR)
Decay date: 1983-08-05

Note: This is a ROCKET BODY
Your satellite tracking list
Your tracking list is empty




NASA's NSSDC Master Catalog

Two Line Element Set (TLE):
1 14164U 83067  B 83217.46959591  .10846486 +33807-4 +33858-3 0  9991
2 14164 064.8695 013.0788 0011097 050.6871 308.4336 16.43964180005574
Source of the keplerian elements: AFSPC